GW3209 Weather Reports


time (UTC)temp
C
wind
direction
speed
KPH
gust
KPH
rain 1hr
cm
rain 24hr
cm
rain mn
cm
humidity
%
barometer
mb
20260906103027 21 9 0.0 8.0 0.00 0.10 0.00 95 1012.9
20260906101532 21 360 3.2 8.0 0.00 0.10 0.00 95 1012.7
20260906100037 21 5 1.6 8.0 0.00 0.10 0.00 94 1012.4
20260906094533 21 355 1.6 8.0 0.00 0.10 0.00 94 1012.1
20260906093030 21 345 1.6 6.4 0.00 0.10 0.00 94 1011.9
20260906091528 21 329 1.6 6.4 0.00 0.10 0.00 93 1012.1
20260906090031 21 304 0.0 4.8 0.00 0.10 0.00 94 1012.0
20260906084535 21 304 0.0 0.0 0.00 0.10 0.00 93 1011.8
20260906083034 21 304 0.0 4.8 0.00 0.10 0.00 94 1011.8
20260906081524 21 304 1.6 6.4 0.00 0.10 0.00 93 1011.8
20260906080030 22 304 0.0 4.8 0.00 0.10 0.00 92 1011.6
20260906074532 22 303 0.0 6.4 0.00 0.10 0.00 91 1011.4
20260906073033 22 302 0.0 4.8 0.00 0.10 0.00 91 1011.3
20260906071503 22 302 0.0 3.2 0.00 0.10 0.00 91 1011.5
20260906070006 22 229 0.0 0.0 0.00 0.10 0.00 91 1011.8
20260906064508 22 229 0.0 0.0 0.00 0.10 0.00 91 1011.9
20260906063014 22 209 0.0 0.0 0.00 0.10 0.00 92 1012.1
20260906061514 22 209 0.0 0.0 0.00 0.10 0.00 93 1012.4
20260906060003 22 209 0.0 0.0 0.00 0.10 0.00 93 1012.3
20260906054505 22 209 0.0 0.0 0.00 0.10 0.00 93 1012.4
20260906053010 22 209 0.0 3.2 0.00 0.10 0.00 93 1012.3
20260906051518 22 209 0.0 3.2 0.00 0.10 0.00 94 1012.4
20260906050020 22 209 0.0 4.8 0.00 0.10 0.00 96 1012.4
20260906044505 22 134 0.0 1.6 0.00 0.10 0.00 96 1012.5
20260906043016 22 134 0.0 1.6 0.00 0.10 0.00 95 1012.7
20260906041514 22 134 0.0 3.2 0.00 0.10 0.00 96 1012.9
20260906040034 22 134 0.0 3.2 0.00 0.10 0.00 96 1012.9
20260906034524 22 134 0.0 1.6 0.00 0.10 0.10 96 1012.9
20260906033038 22 134 0.0 3.2 0.00 0.10 0.10 95 1012.8
20260906031523 22 134 0.0 0.0 0.00 0.10 0.10 95 1012.9
20260906030014 22 134 0.0 0.0 0.00 0.10 0.10 95 1012.9
20260906024523 22 134 0.0 0.0 0.00 0.10 0.10 94 1012.8
20260906023024 23 134 0.0 0.0 0.00 0.10 0.10 94 1012.7
20260906021527 23 134 0.0 0.0 0.00 0.10 0.10 95 1012.5
20260906020028 23 134 0.0 0.0 0.00 0.10 0.10 94 1012.7
20260906014529 23 134 0.0 0.0 0.00 0.10 0.10 93 1012.7
20260906013023 23 134 0.0 0.0 0.00 0.10 0.10 92 1012.4
20260906011527 23 134 0.0 3.2 0.00 0.10 0.10 92 1012.2
20260906010028 24 134 0.0 0.0 0.00 0.10 0.10 92 1011.9
20260906004518 24 134 0.0 0.0 0.00 0.10 0.10 91 1011.9
20260906003020 25 134 0.0 1.6 0.00 0.10 0.10 90 1011.8
20260906001533 25 134 0.0 0.0 0.00 0.10 0.10 87 1011.7
20260906000031 26 134 0.0 0.0 0.00 0.10 0.10 86 1011.5
20260905234531 26 134 0.0 1.6 0.00 0.10 0.10 83 1011.4
20260905233019 27 265 0.0 0.0 0.00 0.10 0.10 80 1011.5
20260905231526 27 234 0.0 3.2 0.00 0.10 0.10 79 1011.5
20260905230027 27 235 0.0 4.8 0.00 0.10 0.10 79 1011.5
20260905224605 27 277 3.2 8.0 0.00 0.10 0.10 77 1011.5
20260905223032 27 284 3.2 9.7 0.00 0.10 0.10 75 1011.4
20260905221521 27 304 4.8 12.9 0.00 0.10 0.10 76 1011.3
20260905220003 27 225 0.0 4.8 0.00 0.10 0.10 76 1011.4
20260905214507 26 225 0.0 4.8 0.00 0.10 0.10 78 1011.8
20260905213014 25 225 1.6 6.4 0.00 0.10 0.10 82 1012.1
20260905211537 25 231 3.2 6.4 0.00 0.10 0.10 80 1012.2
20260905210039 25 302 0.0 6.4 0.00 0.10 0.10 83 1012.1
20260905204505 24 302 1.6 6.4 0.00 0.10 0.10 86 1011.9
20260905203011 24 225 0.0 6.4 0.00 0.10 0.10 86 1011.8
20260905201514 23 179 3.2 11.3 0.00 0.10 0.10 86 1011.9
20260905200026 23 192 3.2 6.4 0.00 0.10 0.10 89 1012.4
20260905194526 22 183 3.2 9.7 0.00 0.10 0.10 90 1012.5
20260905193005 21 166 4.8 16.1 0.00 0.10 0.10 92 1012.4
20260905191511 22 172 4.8 9.7 0.10 0.10 0.10 94 1012.1
20260905190015 21 198 0.0 9.7 0.10 0.10 0.10 92 1011.5
20260905184529 22 232 3.2 9.7 0.10 0.10 0.10 90 1011.6
20260905183030 22 134 8.0 12.9 0.10 0.10 0.10 87 1012.1
20260905181508 24 5 16.1 49.9 0.00 0.00 0.00 79 1013.9
20260905180015 32 329 22.5 40.2 0.00 0.00 0.00 56 1013.5
20260905174524 33 280 8.0 17.7 0.00 0.00 0.00 62 1012.4
20260905173026 33 338 6.4 19.3 0.00 0.00 0.00 64 1012.4
20260905171531 33 265 4.8 19.3 0.00 0.00 0.00 64 1012.8
20260905170011 33 284 6.4 16.1 0.00 0.00 0.00 63 1013.0
20260905164524 32 306 4.8 12.9 0.00 0.00 0.00 66 1013.3
20260905163027 32 294 3.2 9.7 0.00 0.00 0.00 64 1013.3
20260905161530 32 298 0.0 14.5 0.00 0.00 0.00 65 1013.6
20260905160032 32 355 0.0 11.3 0.00 0.00 0.00 67 1013.8
20260905154531 31 171 1.6 14.5 0.00 0.00 0.00 69 1013.9
20260905153021 31 285 3.2 9.7 0.00 0.00 0.00 71 1013.9
20260905151528 30 184 1.6 8.0 0.00 0.00 0.00 74 1013.9
20260905150027 30 162 1.6 9.7 0.00 0.00 0.00 75 1014.1
20260905144532 29 305 0.0 9.7 0.00 0.00 0.00 78 1014.2
20260905143032 28 215 4.8 9.7 0.00 0.00 0.00 78 1014.1
20260905141518 27 279 1.6 8.0 0.00 0.00 0.00 80 1014.0
20260905140026 27 234 3.2 11.3 0.00 0.00 0.00 80 1013.9
20260905134529 26 184 4.8 11.3 0.00 0.00 0.00 83 1014.1
20260905133036 25 209 1.6 8.0 0.00 0.00 0.00 86 1014.2
20260905131502 25 210 1.6 6.4 0.00 0.00 0.00 88 1014.2
20260905130004 24 271 0.0 3.2 0.00 0.00 0.00 89 1014.4
20260905124506 23 270 0.0 4.8 0.00 0.00 0.00 92 1014.3
20260905123010 23 194 0.0 4.8 0.00 0.00 0.00 94 1014.3
20260905121516 22 192 1.6 4.8 0.00 0.00 0.00 95 1014.2
20260905120004 22 192 3.2 6.4 0.00 0.00 0.00 96 1014.3
20260905114504 21 191 1.6 6.4 0.00 0.00 0.00 96 1014.0
20260905113011 21 186 1.6 6.4 0.00 0.00 0.00 96 1013.9
20260905111512 21 184 0.0 0.0 0.00 0.00 0.00 96 1013.6
20260905110016 21 184 0.0 0.0 0.00 0.00 0.00 96 1013.5
20260905104504 22 184 0.0 0.0 0.00 0.00 0.00 96 1013.2